DW6276 Weather Reports


time (UTC)temp
C
wind
direction
speed
KPH
gust
KPH
rain 1hr
cm
rain 24hr
cm
rain mn
cm
humidity
%
barometer
mb
20260504081036 11 248 8.0 11.3 0.00 0.00 0.00 54 999.7
20260504050016 10 0.0 3.2 0.00 0.00 0.00 56 1002.5
20260504045016 9 203 1.6 3.2 0.00 0.00 0.00 56 1002.6
20260504044017 9 0.0 1.6 0.00 0.00 0.00 57 1002.7
20260504043016 9 0.0 3.2 0.00 0.00 0.00 57 1002.9
20260504042016 9 203 3.2 3.2 0.00 0.00 0.00 57 1003.0
20260504041017 9 180 1.6 3.2 0.00 0.00 0.00 58 1003.1
20260504040016 9 180 1.6 1.6 0.00 0.00 0.00 57 1003.4
20260504035017 9 203 1.6 1.6 0.00 0.00 0.00 59 1003.5
20260504034016 10 203 1.6 3.2 0.00 0.00 0.00 56 1003.7
20260504033017 10 0.0 0.0 0.00 0.00 0.00 55 1003.9
20260504032037 10 0.0 0.0 0.00 0.00 0.00 54 1004.1
20260504031016 10 0.0 0.0 0.00 0.00 0.00 54 1004.2
20260504030016 11 0.0 0.0 0.00 0.00 0.00 52 1004.2
20260504025017 11 0.0 0.0 0.00 0.00 0.00 50 1004.1
20260504024016 11 0.0 1.6 0.00 0.00 0.00 49 1004.2
20260504023017 12 0.0 1.6 0.00 0.00 0.00 47 1004.2
20260504022016 12 180 1.6 3.2 0.00 0.00 0.00 46 1004.2
20260504021016 13 270 1.6 4.8 0.00 0.00 0.00 43 1004.3
20260504020017 15 0.0 3.2 0.00 0.00 0.00 40 1004.5
20260504015016 16 270 1.6 3.2 0.00 0.00 0.00 35 1004.5
20260504014016 17 270 1.6 3.2 0.00 0.00 0.00 33 1004.8
20260504013056 17 270 1.6 3.2 0.00 0.00 0.00 33 1004.8
20260504012016 18 270 1.6 3.2 0.00 0.00 0.00 32 1004.8
20260504011016 18 270 4.8 6.4 0.00 0.00 0.00 31 1004.8
20260504010016 18 293 6.4 9.7 0.00 0.00 0.00 30 1004.8
20260504005016 19 0 11.3 16.1 0.00 0.00 0.00 29 1004.8
20260504004016 20 293 11.3 16.1 0.00 0.00 0.00 29 1004.7
20260504003016 20 0 8.0 12.9 0.00 0.00 0.00 28 1004.8
20260504002016 20 293 11.3 16.1 0.00 0.00 0.00 27 1005.0
20260504001016 21 293 11.3 14.5 0.00 0.00 0.00 26 1005.0
20260504000016 21 293 14.5 27.4 0.00 0.00 0.00 26 1005.1
20260503235016 21 293 16.1 22.5 0.00 0.00 0.00 26 1005.1
20260503234016 21 315 14.5 24.1 0.00 0.00 0.00 26 1005.2
20260503233116 21 315 17.7 24.1 0.00 0.00 0.00 25 1005.2
20260503232016 21 315 14.5 20.9 0.00 0.00 0.00 27 1005.3
20260503231016 21 315 11.3 19.3 0.00 0.00 0.00 26 1005.3
20260503230016 21 315 14.5 22.5 0.00 0.00 0.00 25 1005.4
20260503225016 21 315 12.9 19.3 0.00 0.00 0.00 25 1005.5
20260503224016 21 315 14.5 20.9 0.00 0.00 0.00 24 1005.6
20260503223016 22 315 17.7 22.5 0.00 0.00 0.00 24 1005.5
20260503222016 22 315 17.7 25.7 0.00 0.00 0.00 24 1005.5
20260503221016 22 338 16.1 24.1 0.00 0.00 0.00 24 1005.5
20260503220016 21 315 17.7 25.7 0.00 0.00 0.00 24 1005.5
20260503215016 22 315 17.7 29.0 0.00 0.00 0.00 24 1005.7
20260503214016 22 293 9.7 19.3 0.00 0.00 0.00 25 1005.5
20260503213016 22 0 14.5 20.9 0.00 0.00 0.00 24 1005.6
20260503212016 22 293 16.1 25.7 0.00 0.00 0.00 25 1005.9
20260503211016 22 315 17.7 29.0 0.00 0.00 0.00 24 1006.0
20260503210016 21 315 16.1 25.7 0.00 0.00 0.00 27 1006.0
20260503205016 21 315 16.1 29.0 0.00 0.00 0.00 27 1006.2
20260503204036 21 315 19.3 32.2 0.00 0.00 0.00 28 1006.5
20260503203016 21 0 17.7 27.4 0.00 0.00 0.00 27 1006.5
20260503202016 21 0 17.7 30.6 0.00 0.00 0.00 26 1006.5
20260503201016 21 315 16.1 24.1 0.00 0.00 0.00 28 1006.8
20260503200016 21 338 17.7 29.0 0.00 0.00 0.00 26 1006.9
20260503195015 21 338 22.5 29.0 0.00 0.00 0.00 28 1007.2
20260503194016 21 0 19.3 29.0 0.00 0.00 0.00 28 1007.0
20260503193016 21 338 22.5 32.2 0.00 0.00 0.00 28 1007.1
20260503192015 21 315 19.3 29.0 0.00 0.00 0.00 29 1007.1
20260503191016 21 338 22.5 32.2 0.00 0.00 0.00 29 1007.1
20260503190015 21 338 14.5 25.7 0.00 0.00 0.00 30 1007.2
20260503185016 21 315 16.1 22.5 0.00 0.00 0.00 29 1007.4
20260503184036 20 338 22.5 30.6 0.00 0.00 0.00 29 1007.4
20260503183015 20 338 19.3 27.4 0.00 0.00 0.00 29 1007.5
20260503182016 20 338 22.5 33.8 0.00 0.00 0.00 28 1007.7
20260503181015 20 338 19.3 40.2 0.00 0.00 0.00 29 1007.8
20260503180016 20 338 17.7 25.7 0.00 0.00 0.00 32 1007.8
20260503175035 20 0 17.7 27.4 0.00 0.00 0.00 32 1007.9
20260503174015 20 315 19.3 32.2 0.00 0.00 0.00 32 1007.9
20260503173016 20 338 16.1 24.1 0.00 0.00 0.00 35 1008.1
20260503172015 20 338 17.7 24.1 0.00 0.00 0.00 34 1008.2
20260503171015 20 338 17.7 24.1 0.00 0.00 0.00 36 1008.2
20260503131017 12 0 9.7 14.5 0.00 0.00 0.00 57 1006.8